Location: Ecklingerode
(51.5036°N, 10.3122°E)
Time: 14:44:20
(UTC+00:00)

Cosmos 1980 Rocket - Pass Details

Date: 29 October 2020
Orbit: 831 x 848 km, 71.0° (Epoch: 28 November)

Event Time Altitude Azimuth Distance (km) Brightness Sun altitude
Rises 17:31:33 0° 171° (S) 3,377 5.3 -15.2°
Reaches altitude 10° 17:34:18 10° 160° (SSE) 2,445 4.4 -15.7°
Maximum altitude 17:38:55 27° 104° (ESE) 1,556 3.0 -16.4°
Enters shadow 17:39:33 26° 93° (E) 1,578 3.0 -16.5°
